• Join FlightAware (Why Join?)
  • Login
  • US Flag 
01:30AM EDT


 

Airport Tracker/Info


-or-


 

Live Flight TrackerFlight Track Log ✈ SWA706 ✈ 25-May-2013 ✈ KALB - KBWI

Flight Track Log - Related Links

Times and Time Zones

All times are in EDT time to prevent confusion due to time zone crossing. See the SWA706 flight status page for this flight to view local times or setup timezone preferences in your user account.

Time Position Orientation Groundspeed Altitude Reporting Facility
EDT Latitude Longitude Course Direction KTS MPH feet Rate Location/Type
06:29AM 42.7631 -73.8061 340° North 147 169 1,600  Level Boston Center
06:30AM 42.8047 -73.8267 340° North 151 174 4,100 2,760 Climbing Boston Center
06:31AM 42.8583 -73.8703 329° Northwest 203 234 7,300 3,180 Climbing Boston Center
06:32AM 42.9203 -73.9144 332° Northwest 238 274 10,700 2,520 Climbing Boston Center
06:33AM 42.9858 -74.0011 316° Northwest 132 152 12,900 2,820 Climbing Boston Center
06:34AM 42.9239 -74.1044 231° Southwest 410 472 17,000 3,540 Climbing Boston Center
06:35AM 42.8264 -74.0736 167° South 411 473 20,000 3,360 Climbing Boston Center
06:36AM 42.7269 -74.0314 163° South 392 451 23,800 3,600 Climbing Boston Center
06:37AM 42.6339 -73.9839 159° South 372 428 27,200 2,100 Climbing Boston Center
06:38AM 42.5303 -73.9389 162° South 358 412 28,000 360 Climbing Boston Center
06:39AM 42.4328 -73.8972 162° South 358 412 28,000  Level Boston Center
06:40AM 42.3375 -73.8556 162° South 363 418 28,000  Level Boston Center
06:41AM 42.2336 -73.8114 163° South 369 425 28,000  Level Boston Center
06:42AM 42.1300 -73.7642 161° South 381 438 28,000  Level Boston Center
06:43AM 42.0197 -73.7592 178° South 386 444 28,000  Level Boston Center
06:44AM 41.9111 -73.7653 182° South 386 444 28,000  Level Boston Center
06:46AM 41.6919 -73.7742 182° South 391 450 28,000  Level New York Center
06:47AM 41.5814 -73.7775 181° South 397 457 28,000  Level New York Center
06:48AM 41.4708 -73.7892 185° South 402 463 28,000  Level New York Center
06:49AM 41.3708 -73.8703 211° Southwest 402 463 28,000  Level New York Center
06:50AM 41.2747 -73.9569 214° Southwest 402 463 28,000  Level New York Center
06:51AM 41.1786 -74.0461 215° Southwest 415 478 28,000  Level New York Center
06:52AM 41.0825 -74.1350 215° Southwest 433 498 28,000  Level New York Center
06:53AM 40.9778 -74.2231 212° Southwest 441 507 28,000  Level New York Center
06:54AM 40.8792 -74.3197 217° Southwest 441 507 28,000  Level New York Center
06:55AM 40.7847 -74.4133 217° Southwest 441 507 28,000  Level New York Center
06:56AM 40.7058 -74.5350 229° Southwest 436 502 28,000  Level New York Center
06:57AM 40.6269 -74.6567 230° Southwest 441 507 28,000  Level New York Center
06:58AM 40.5456 -74.7775 228° Southwest 446 513 28,000  Level New York Center
06:59AM 40.4622 -74.9008 228° Southwest 446 513 28,000 -480 Level New York Center
07:00AM 40.4178 -75.0400 247° West 431 496 27,000 -1,560 Descending New York Center
07:01AM 40.3833 -75.1822 252° West 425 489 25,000 -2,400 Descending New York Center
07:02AM 40.3067 -75.2808 224° Southwest 413 475 22,600 -2,400 Descending New York Center
07:03AM 40.2175 -75.3728 218° Southwest 418 481 20,200 -2,340 Descending New York Center
07:04AM 40.1156 -75.4747 217° Southwest 423 487 18,000 -1,140 Descending New York Center
07:05AM 40.0425 -75.5836 229° Southwest 404 465 18,000 -180 Level New York Center
07:06AM 39.9758 -75.6847 229° Southwest 389 448 17,700 -600 Descending New York Center
07:07AM 39.9069 -75.7828 228° Southwest 381 438 16,800 -900 Descending New York Center
07:08AM 39.8444 -75.8783 230° Southwest 368 423 15,900 -1,320 Descending New York Center
07:11AM 39.6833 -76.1333 231° Southwest 351 404 12,000 -1,320 Descending Potomac TRACON
07:12AM 39.6333 -76.2167 232° Southwest 300 345 11,200 -1,200 Descending Potomac TRACON
07:13AM 39.5833 -76.3000 232° Southwest 298 343 9,600 -1,620 Descending Potomac TRACON
07:14AM 39.5167 -76.3667 218° Southwest 310 357 8,200 -1,440 Descending Potomac TRACON
07:15AM 39.4333 -76.4167 205° Southwest 304 350 6,800 -1,260 Descending Potomac TRACON
07:16AM 39.3500 -76.4167 180° South 303 349 5,600 -1,200 Descending Potomac TRACON
07:17AM 39.2667 -76.4333 189° South 282 325 4,400 -900 Descending Potomac TRACON
07:18AM 39.2000 -76.4500 191° South 290 334 4,000 -660 Descending Potomac TRACON
07:19AM 39.1167 -76.4833 197° South 289 333 3,200 -960 Descending Potomac TRACON
07:20AM 39.0667 -76.5500 226° Southwest 251 289 2,100 -600 Descending Potomac TRACON
07:21AM 39.0833 -76.5833 303° West 150 173 2,000 -300 Descending Potomac TRACON
07:21AM 39.1000 -76.6000 322° Northwest 100 115 1,600 -420 Descending Potomac TRACON
07:22AM 39.1167 -76.6167 322° Northwest 117 135 1,300 -540 Descending Potomac TRACON
07:23AM 39.1500 -76.6500 322° Northwest 122 140 600 -720 Descending Potomac TRACON